GFSMW_925_rhum_084.txt.gz
RH
32 28 25 36 74 74 80 83 88 89 88 88 85 88 86 85 82 81 74 70 71 72 72 71 72 73 73 67 67 68 68 69 72 80 74 70 68 68 67 68 68 66 63
38 32 26 23 29 63 72 82 85 84 84 85 80 79 80 82 77 71 68 66 71 70 66 67 69 71 74 70 69 72 72 72 73 76 82 86 73 64 64 66 67 67 66
37 36 32 27 26 33 58 70 80 87 87 86 87 88 86 87 85 86 83 78 71 69 66 67 68 69 70 70 70 72 77 79 78 79 80 91 92 80 64 61 60 60 60
38 37 39 38 34 33 37 42 64 83 90 92 92 90 89 90 82 79 80 82 85 84 79 72 71 71 71 72 71 72 75 81 89 90 90 86 85 91 90 71 65 59 63
39 39 45 42 44 42 38 38 43 46 51 57 82 98 100 97 93 89 85 84 85 88 90 91 88 82 79 81 81 81 81 83 90 92 95 95 94 93 89 92 84 76 70
41 41 45 54 54 48 41 36 34 33 33 33 34 37 47 66 85 93 95 94 92 87 84 83 82 82 82 85 91 95 96 95 99 97 100 100 97 98 96 98 94 90 84
43 49 67 71 65 54 53 51 47 47 43 38 34 34 35 38 47 65 76 79 73 69 71 79 86 87 87 89 89 88 91 94 90 89 97 100 99 98 97 96 97 96 91
49 56 68 72 66 65 62 58 57 59 59 57 54 50 46 44 45 46 47 49 53 55 57 68 83 97 96 95 97 96 97 100 100 100 100 99 99 99 100 100 100 98 97
70 74 80 74 68 69 67 65 65 67 66 64 66 66 64 64 65 69 75 81 85 94 99 98 100 100 100 99 100 100 99 96 88 87 90 99 100 100 97 100 98 99 99
86 88 86 75 69 67 66 66 67 70 72 71 71 71 73 74 75 77 79 87 93 98 99 99 100 100 100 100 99 93 88 89 84 89 99 100 100 98 96 99 97 98 100
88 90 86 73 70 69 69 69 71 73 74 74 76 76 76 77 77 76 77 81 87 91 92 92 93 94 93 93 92 92 93 86 89 99 99 99 98 99 97 98 98 96 99
89 89 83 76 74 72 71 73 75 74 75 75 75 74 74 74 74 73 74 76 80 83 84 83 81 80 79 81 84 90 93 94 96 99 98 99 99 98 96 93 90 94 96
91 89 86 80 75 72 71 74 77 76 76 76 75 74 73 72 71 72 73 75 76 78 79 78 77 79 84 88 90 92 97 98 98 98 96 96 97 95 92 90 88 88 88
91 89 87 81 72 69 70 71 76 76 75 75 76 76 77 77 78 79 79 80 80 80 80 81 82 84 87 90 95 100 99 99 98 96 94 94 91 87 86 86 87 87 88
91 88 87 85 72 69 68 73 75 76 76 77 80 82 84 84 85 85 86 86 86 86 86 87 89 92 93 96 98 99 98 95 97 98 99 100 99 97 94 90 90 90 89
86 87 83 82 75 69 68 71 75 77 78 81 86 90 91 93 94 96 100 96 93 93 92 92 95 100 100 98 98 98 100 100 97 98 99 98 97 99 100 99 96 85 67
81 83 80 78 72 67 64 69 74 78 81 84 90 95 97 98 99 100 100 99 99 99 99 99 99 99 99 99 88 90 96 99 99 96 82 68 61 60 62 80 73 89 93
75 80 78 74 69 65 65 67 74 78 82 87 92 97 98 99 99 100 100 100 100 99 99 100 100 99 100 100 90 88 87 82 64 52 50 59 82 88 69 67 72 76 74
73 67 67 69 68 66 66 69 78 82 85 89 92 95 98 99 99 100 100 100 100 100 100 100 99 98 98 78 55 43 40 46 54 58 66 75 78 85 84 52 61 74 73
65 66 67 67 68 69 68 72 80 84 87 89 92 97 100 100 100 99 99 100 100 99 93 78 71 69 73 60 49 48 49 52 61 71 80 85 81 78 82 61 52 52 64
69 68 69 69 68 69 70 76 80 85 83 88 94 99 100 100 99 99 99 100 99 95 74 74 79 79 76 84 70 49 47 48 54 57 56 57 83 78 78 79 53 82 87
78 74 75 74 72 71 72 77 82 80 85 91 98 100 100 100 100 99 100 100 99 78 72 73 74 71 73 80 86 78 53 49 48 50 54 62 68 71 76 74 66 88 88
75 75 75 80 78 75 74 80 82 85 90 97 100 100 100 100 100 100 100 99 82 69 70 68 66 66 61 66 81 77 80 76 62 57 64 78 79 72 51 63 87 88 84
75 75 78 83 85 82 82 82 84 87 93 100 100 100 100 100 100 100 98 90 81 78 72 65 59 56 54 54 62 62 64 62 52 50 51 51 64 65 60 71 77 71 72
72 73 77 80 81 85 88 89 88 92 99 100 100 100 100 100 100 99 92 82 73 59 48 42 39 40 40 37 45 55 53 47 52 70 63 42 44 49 57 65 71 74 79
73 76 77 80 79 85 91 98 98 97 100 100 100 100 100 100 99 99 90 77 61 50 44 38 32 31 35 36 45 67 75 77 86 80 71 58 47 52 58 63 71 78 83

GFSMW_925_rhum_087.txt.gz
RH
49 43 33 35 76 78 85 65 61 65 69 85 92 96 95 88 84 82 81 81 77 78 79 77 78 80 79 74 71 70 72 73 72 79 79 70 68 68 66 64 64 66 68
48 41 33 28 27 60 64 63 83 84 76 96 94 92 89 88 84 81 83 82 79 76 78 82 80 78 82 80 77 74 74 76 75 79 84 74 72 65 62 59 57 62 65
44 40 35 32 28 26 54 69 71 85 92 96 96 91 88 89 88 88 85 76 75 71 70 74 74 72 75 79 79 76 74 84 79 80 78 90 88 76 64 64 62 63 64
42 38 35 32 28 27 30 49 69 83 86 91 94 92 90 90 84 81 78 78 81 86 77 72 71 71 73 75 74 75 76 82 91 87 86 82 84 90 84 72 70 69 68
40 38 36 34 34 34 35 40 48 74 90 98 98 96 96 95 94 93 90 87 86 89 92 92 88 82 77 78 78 79 80 82 88 90 91 93 96 96 95 96 87 79 74
38 36 35 40 44 41 42 41 44 51 57 64 77 91 97 98 99 100 99 97 96 94 91 92 95 95 95 91 88 88 90 89 91 93 92 94 96 98 98 97 94 92 86
41 39 46 60 54 51 47 47 43 42 40 37 36 36 37 38 41 51 62 73 79 83 86 90 93 92 90 92 95 99 99 96 96 99 100 99 99 98 97 96 98 96 93
47 44 50 59 60 53 56 54 54 52 50 47 45 45 43 41 40 42 45 49 57 62 63 66 77 86 95 99 99 97 98 100 99 100 98 99 100 99 99 100 98 97 96
50 50 57 65 67 66 64 60 58 60 59 55 55 55 55 57 59 61 64 66 67 69 73 79 83 94 99 100 100 99 100 100 100 99 98 100 100 99 99 100 100 98 96
64 72 74 74 73 71 70 70 67 66 68 66 65 65 67 68 70 74 78 86 90 98 98 95 95 98 99 99 100 99 100 100 95 90 95 100 100 100 99 98 97 99 98
81 83 78 77 76 74 72 73 71 69 70 70 71 72 73 74 75 75 76 79 85 91 96 94 93 99 100 98 99 98 95 94 91 94 94 99 99 99 99 99 97 95 96
84 81 78 80 80 80 80 79 76 73 73 72 72 72 72 72 72 72 73 75 80 83 85 86 87 87 88 91 96 96 98 96 98 99 98 98 97 96 96 93 90 91 95
87 83 79 77 79 75 76 78 77 75 75 74 73 73 72 71 71 72 73 75 77 79 80 81 80 81 83 83 86 88 92 92 94 98 98 98 96 94 90 86 86 86 86
85 82 80 78 78 73 74 77 78 76 76 74 76 74 74 74 74 76 77 79 79 81 82 82 82 83 88 92 94 98 98 98 98 98 97 94 91 88 85 84 84 85 86
87 82 80 77 77 74 73 76 75 76 76 74 74 78 80 81 82 83 83 84 85 84 85 85 87 89 91 95 96 100 99 98 94 92 92 91 90 87 87 86 86 85 85
83 83 80 79 77 72 70 72 73 73 74 75 79 82 86 89 90 91 92 91 91 92 92 93 95 100 100 100 100 99 99 99 99 99 99 99 99 99 100 97 88 71 61
78 81 78 77 75 70 66 70 72 74 77 80 84 88 92 95 95 96 100 98 95 97 100 100 99 100 100 100 100 100 100 98 99 98 93 84 74 71 71 82 83 85 83
77 78 77 78 73 68 66 66 74 78 82 86 89 93 96 97 99 100 100 100 100 100 99 100 100 99 100 100 97 98 97 94 80 62 56 60 70 61 55 58 64 69 72
72 70 70 70 70 68 66 68 76 79 83 87 91 95 98 99 99 100 100 100 100 100 100 100 100 99 100 100 87 78 56 47 51 58 70 73 80 94 49 47 61 71 74
60 66 67 69 70 70 67 70 78 82 84 84 87 91 95 97 99 99 99 99 100 100 100 100 97 80 73 56 42 41 44 52 60 67 78 69 73 79 79 47 45 58 65
70 69 70 71 72 71 70 74 77 81 76 80 86 92 96 99 99 100 100 100 100 97 88 72 75 76 72 82 58 47 44 45 53 57 60 72 85 76 80 59 50 66 75
75 74 75 75 74 72 72 75 77 74 79 84 90 95 99 100 100 100 100 100 99 91 76 78 82 77 77 82 80 46 40 43 45 48 50 53 70 70 78 72 77 96 80
74 75 75 78 76 74 72 75 74 78 83 89 94 99 100 100 100 100 100 100 99 86 75 79 73 70 72 75 84 83 83 54 50 49 57 74 83 75 50 77 85 94 80
74 75 79 82 82 77 75 74 76 82 88 95 100 100 100 100 100 100 100 99 99 78 70 72 66 64 59 63 73 74 82 82 57 68 61 52 53 55 54 73 82 71 67
71 74 77 78 78 80 81 83 83 86 92 97 100 100 99 100 100 99 98 99 87 58 60 58 52 51 50 41 44 52 55 50 48 53 58 42 41 48 52 58 64 69 73
73 74 74 75 74 80 84 88 90 91 94 100 100 100 100 100 100 100 100 96 77 71 64 49 40 35 33 34 36 44 52 50 80 80 63 54 44 44 50 56 60 68 78

GFSMW_925_rhum_090.txt.gz
RH
24 32 34 36 82 81 78 77 72 80 96 96 100 100 99 97 92 92 92 87 86 85 87 83 82 84 83 79 79 77 78 77 78 75 69 69 68 69 68 68 67 66 72
28 31 35 31 58 80 84 85 68 64 77 98 94 78 90 94 98 96 92 91 91 90 89 87 86 85 86 85 83 81 78 75 76 71 71 68 58 62 65 65 67 66 69
34 31 35 39 37 43 75 87 76 45 55 78 70 76 81 82 91 98 96 89 90 89 89 83 88 89 90 87 86 85 86 77 84 84 76 81 76 66 66 67 66 65 66
32 30 32 36 36 33 33 44 77 71 57 42 78 91 96 95 92 89 96 98 84 80 78 77 80 90 86 81 91 92 88 89 82 95 90 83 84 82 89 73 72 69 70
32 33 34 34 34 38 37 33 40 79 92 76 48 98 98 94 94 95 93 97 91 86 88 92 86 83 87 81 89 92 92 90 89 86 93 98 99 96 96 94 76 83 76
31 30 33 38 41 33 34 41 38 56 77 91 98 100 99 99 100 100 100 98 99 99 97 97 100 99 97 96 95 96 97 96 96 95 96 96 88 89 94 95 91 87 92
31 30 30 38 45 49 44 42 47 46 54 64 74 87 90 86 85 83 79 80 80 89 96 98 100 100 100 100 100 100 100 100 100 100 99 98 93 94 92 93 83 87 93
31 31 29 33 45 49 52 53 53 58 58 50 48 44 40 38 38 41 44 61 70 80 78 77 80 92 98 100 100 100 100 99 100 99 99 100 97 99 100 99 91 91 90
32 33 32 37 43 50 52 55 57 62 65 67 66 60 57 58 59 55 60 62 61 70 73 75 84 81 80 99 100 100 100 100 100 100 100 99 99 98 99 100 99 92 76
30 30 34 40 48 56 63 64 62 63 71 73 71 73 65 61 63 70 74 77 82 86 90 93 92 94 91 93 99 99 100 100 100 100 100 99 100 99 99 96 94 98 96
40 37 41 50 57 66 71 72 71 71 71 70 71 71 72 71 70 71 72 75 80 87 96 92 90 90 90 99 100 100 100 100 99 98 98 100 99 98 97 96 96 99 95
50 50 51 58 62 65 70 72 73 71 73 73 71 71 72 72 71 72 71 72 76 79 83 89 92 89 89 97 99 99 99 99 97 99 99 99 98 98 95 99 99 99 97
59 56 55 56 58 62 66 69 71 71 73 72 71 71 72 72 72 74 74 72 74 76 78 81 83 85 87 89 93 95 95 95 95 97 97 96 96 95 93 94 91 89 90
61 56 54 55 58 61 66 68 69 71 74 74 73 73 74 75 75 77 78 79 80 82 81 82 83 84 86 88 88 91 93 95 96 96 96 95 95 94 93 90 91 91 87
62 60 56 53 57 61 64 67 69 72 73 75 76 78 81 83 84 84 86 85 87 86 87 89 90 90 92 97 99 98 96 97 97 96 93 92 88 84 86 92 89 90 84
61 58 57 54 55 57 60 66 69 73 76 75 78 84 86 88 90 92 92 93 94 94 94 97 99 100 100 100 100 100 100 100 99 100 100 100 100 100 94 78 75 80 79
55 58 56 57 56 57 59 63 67 72 74 76 81 86 88 90 92 94 96 96 97 99 100 100 100 100 99 98 99 100 99 97 97 98 99 98 96 94 94 95 90 80 46
51 54 56 58 60 59 61 62 68 73 78 78 82 86 88 91 96 99 99 99 99 99 100 99 99 99 99 98 100 99 99 99 96 89 83 74 68 59 68 70 76 78 73
46 50 54 58 61 62 62 65 72 77 82 80 86 89 90 94 98 99 99 100 100 100 100 100 99 99 98 100 100 99 92 79 66 66 78 80 80 56 48 77 74 67 84
55 57 60 64 64 64 64 66 70 75 78 81 84 88 96 98 100 99 98 99 100 100 100 100 100 99 100 98 84 67 60 61 66 72 74 66 70 91 48 54 55 58 61
63 65 66 66 68 70 70 70 72 78 82 88 91 95 99 98 98 100 100 100 100 100 100 100 94 81 73 74 44 42 60 59 63 69 74 77 81 77 78 50 48 48 64
66 72 70 75 77 79 76 77 82 80 80 87 94 99 99 99 99 99 100 100 100 100 94 82 79 81 79 78 80 50 46 53 56 54 57 60 70 74 78 70 63 93 75
65 70 70 73 78 81 78 81 82 78 82 93 97 100 99 100 100 100 100 100 100 94 84 75 72 73 79 79 83 75 54 47 52 55 59 61 77 73 69 60 81 95 76
63 70 71 71 73 78 78 73 79 79 88 88 94 100 100 100 100 100 100 100 100 95 81 70 66 66 71 74 82 81 83 80 56 50 78 69 62 73 58 70 89 84 72
69 72 68 68 68 77 79 76 81 86 88 88 96 100 100 100 100 100 99 99 99 97 80 64 61 63 62 58 66 73 79 77 74 70 67 60 58 64 64 67 71 71 73
71 73 78 77 72 77 78 80 82 88 87 90 99 100 100 100 100 100 100 100 100 99 84 63 59 49 43 37 36 44 53 56 56 69 59 48 43 46 47 54 61 67 75

GFSMW_925_rhum_093.txt.gz
RH
24 26 33 54 62 65 64 68 78 82 91 94 99 94 87 85 80 76 80 77 73 74 77 75 72 73 73 71 71 72 73 74 76 72 70 68 67 68 67 67 65 61 66
24 25 30 39 61 67 70 70 65 75 92 98 99 96 93 95 92 88 90 90 86 82 79 79 78 75 76 77 75 74 75 76 72 73 67 73 63 64 64 62 62 63 65
24 25 29 34 59 67 71 71 61 62 79 93 86 94 91 91 99 98 96 78 82 89 91 88 84 82 81 81 82 81 80 76 74 76 74 81 79 65 62 63 64 64 64
25 25 30 35 37 42 69 72 71 79 73 83 92 90 79 68 65 59 56 78 77 80 97 99 95 87 89 90 88 86 84 87 83 84 84 79 78 80 79 72 71 69 68
28 28 30 38 40 38 45 49 54 72 81 72 70 80 61 61 61 56 80 84 84 68 64 68 96 94 89 92 91 92 92 91 88 84 88 90 89 95 91 92 79 83 79
29 27 33 34 38 43 48 50 51 64 79 91 58 57 53 54 65 74 68 58 54 93 94 100 83 99 96 91 91 93 94 92 88 88 88 91 95 96 94 93 86 83 89
28 29 30 36 36 45 49 52 46 48 58 70 74 84 78 58 57 63 69 57 70 82 88 90 99 100 98 98 98 98 95 94 92 92 91 91 91 84 87 83 82 88 86
25 26 27 32 36 44 43 42 48 52 54 58 62 67 77 84 81 70 68 66 63 64 77 85 90 96 99 99 99 100 98 97 97 98 95 93 92 89 90 89 88 95 89
26 26 26 26 30 50 49 43 47 53 54 56 58 60 61 59 55 56 48 54 60 68 72 76 83 90 93 99 99 96 96 99 99 98 99 96 96 98 98 96 97 97 92
25 26 27 28 33 40 48 52 49 54 58 61 60 62 66 65 69 71 75 75 74 75 83 86 87 89 89 84 100 99 100 100 100 99 100 100 99 99 98 96 96 98 96
27 26 26 29 35 44 52 54 55 63 66 64 64 65 66 67 68 69 73 75 77 80 85 87 89 92 95 99 98 98 98 99 100 100 99 99 99 94 94 94 92 91 93
34 32 30 39 46 54 56 57 62 62 63 64 62 65 67 66 65 67 68 69 72 74 76 81 86 88 91 97 98 100 100 100 100 99 97 95 96 95 94 93 93 96 98
45 42 41 45 50 53 55 58 60 62 65 64 64 65 66 65 64 66 69 70 71 73 76 79 82 84 89 89 91 94 94 93 94 95 96 96 96 96 94 98 98 95 92
48 45 45 45 48 51 54 56 58 62 65 64 64 65 67 67 68 71 72 73 74 75 78 80 83 85 85 87 87 88 89 91 93 94 94 94 96 97 96 95 94 90 88
49 48 46 45 48 53 56 56 59 62 64 65 67 69 73 75 76 77 78 78 79 80 83 84 87 91 93 93 92 91 91 92 93 94 94 95 94 96 93 90 86 87 84
50 48 47 45 48 52 54 57 61 63 66 65 67 74 76 78 81 82 83 85 86 86 86 89 91 96 98 99 99 98 99 99 100 99 99 95 86 84 82 86 82 81 85
46 49 48 47 47 49 52 57 60 63 64 65 68 74 75 79 82 85 87 89 91 93 96 98 99 99 99 99 99 99 99 99 99 99 99 99 98 96 94 90 67 62 71
42 45 46 48 49 50 52 55 58 62 66 66 69 74 76 79 85 89 94 100 100 100 99 96 97 99 99 99 99 99 100 100 100 100 97 88 87 82 70 63 61 58 57
38 40 45 48 52 52 53 55 60 64 71 68 72 75 78 81 86 94 99 100 98 98 99 99 100 99 99 98 99 99 99 96 90 82 74 69 68 51 69 67 67 76 75
44 43 46 50 53 54 55 57 61 64 69 72 72 77 84 84 91 98 100 99 100 100 99 99 100 99 99 99 100 92 79 71 70 73 74 72 76 45 49 63 61 59 67
56 58 55 56 57 58 59 60 62 65 70 77 80 82 90 93 97 99 97 98 99 100 100 100 99 98 97 98 92 68 56 56 61 66 69 65 80 87 49 50 48 51 58
60 66 61 68 69 70 68 68 70 75 79 84 87 91 96 99 100 98 100 100 100 100 99 100 91 76 71 69 74 55 56 58 61 62 66 74 80 75 81 45 63 50 72
60 63 63 67 71 74 72 72 79 86 86 87 90 94 98 99 100 100 100 100 100 100 98 88 78 71 73 74 78 81 64 61 53 52 55 63 71 71 74 82 75 94 73
58 62 62 62 66 72 73 68 76 79 80 81 83 89 96 100 100 100 100 100 100 99 96 86 74 67 70 73 81 80 75 71 51 60 62 64 69 80 65 66 82 87 79
63 64 62 60 60 67 69 70 75 78 78 76 78 89 97 100 100 99 99 99 99 99 98 94 76 63 64 65 70 79 82 79 72 64 74 63 58 62 62 62 76 80 70
66 66 68 72 73 75 76 75 76 78 80 80 80 92 99 100 100 100 99 100 100 100 99 99 80 60 60 56 62 78 78 79 79 70 61 55 50 51 58 56 60 65 67

GFSMW_925_rhum_096.txt.gz
RH
27 31 37 58 65 64 68 76 82 80 81 84 85 85 80 79 75 71 67 65 71 72 74 75 73 71 67 69 70 71 72 73 70 71 70 69 67 67 67 68 68 66 63
30 30 39 50 62 66 65 70 76 84 85 86 88 91 84 76 77 77 73 78 75 74 74 76 76 74 74 74 72 72 74 74 75 75 76 86 72 68 67 68 67 64 66
28 32 38 47 60 65 67 71 75 76 81 84 81 91 89 83 81 78 74 75 74 74 76 80 80 78 78 77 77 76 75 76 76 75 74 90 90 71 68 65 63 64 65
26 29 38 44 61 66 71 71 68 73 79 77 76 75 74 75 72 73 76 69 69 71 71 71 71 71 73 78 84 83 84 81 81 79 74 75 82 90 88 70 69 67 66
30 32 41 40 44 59 77 72 65 71 82 82 77 79 75 66 63 63 64 71 66 59 60 60 62 61 61 76 81 77 76 90 86 85 87 86 84 87 92 94 84 80 79
31 32 40 42 42 42 50 55 82 77 68 59 58 58 62 62 70 67 64 65 76 77 70 61 65 69 61 57 66 64 75 69 89 91 88 86 89 96 96 99 89 88 86
34 41 47 47 47 46 47 46 59 80 84 71 68 58 51 52 53 56 54 52 55 56 68 75 74 55 58 82 89 86 92 94 92 91 85 87 88 86 89 89 88 91 90
37 41 46 44 44 47 47 42 44 50 65 74 73 77 61 60 60 59 55 57 61 58 48 48 68 86 96 96 88 97 100 99 98 96 94 94 97 95 89 82 85 98 95
35 39 38 42 46 48 49 45 46 43 51 57 63 63 68 74 80 75 73 66 67 70 70 68 62 65 69 77 92 95 93 86 94 96 94 96 100 97 92 86 86 88 97
27 29 36 36 46 46 47 48 53 53 50 53 58 61 64 64 63 60 58 60 60 59 58 64 73 77 80 79 87 98 96 99 98 99 100 100 99 99 96 98 95 94 94
32 32 32 33 44 48 50 51 54 58 60 58 54 52 58 60 60 60 64 67 68 71 77 80 86 88 90 91 99 97 96 100 100 100 100 100 100 100 99 96 93 94 96
37 36 36 46 50 52 53 55 64 65 64 62 54 48 50 55 59 61 61 63 65 64 69 72 80 84 87 93 98 96 99 100 100 100 100 100 99 97 94 91 91 92 89
45 44 51 54 56 56 57 62 63 64 62 61 58 58 63 64 64 63 64 65 65 68 69 72 76 79 81 88 92 94 98 99 99 99 98 96 96 95 93 93 94 97 97
53 52 56 58 54 56 57 60 63 64 63 62 62 64 64 64 64 65 65 66 67 68 70 72 74 77 81 84 87 89 91 92 94 95 94 94 94 94 91 91 92 91 91
55 56 58 62 56 56 57 59 62 64 64 64 64 66 67 66 66 66 68 69 70 72 74 77 79 81 84 86 88 88 89 90 93 95 94 94 94 94 93 91 90 88 87
56 55 56 58 58 57 57 59 61 64 65 66 68 68 67 68 70 71 72 73 76 78 81 85 88 91 93 90 100 97 94 93 92 94 94 93 94 95 91 89 87 85 83
56 57 58 56 53 55 56 60 62 64 65 66 68 69 70 73 76 79 79 82 84 86 87 87 89 95 98 98 99 98 98 96 96 98 97 98 94 91 86 84 80 80 83
51 57 56 51 50 52 55 59 62 64 65 66 68 71 74 78 81 83 87 90 93 98 100 93 94 95 98 98 99 98 100 100 99 100 99 98 96 92 78 68 49 48 55
46 50 48 49 50 52 53 57 61 63 65 67 69 72 74 78 81 85 90 100 99 97 93 95 99 99 99 100 97 100 100 100 100 99 90 88 82 77 67 53 63 59 54
58 55 47 50 53 53 54 57 62 64 69 68 69 72 75 79 82 87 98 100 99 96 96 98 99 100 98 99 98 100 96 91 84 76 75 76 63 50 78 56 66 69 69
62 59 58 58 56 55 55 58 62 65 68 70 71 75 78 82 85 90 100 97 100 100 99 99 99 100 98 98 99 82 74 69 68 69 65 72 91 59 50 56 59 56 58
68 67 68 70 68 63 60 62 65 67 68 72 76 80 83 87 92 100 99 100 100 100 100 100 99 96 90 83 97 79 60 58 56 60 66 65 81 82 66 46 52 65 59
63 65 68 71 72 72 70 72 75 73 74 78 81 85 88 94 98 100 100 100 100 100 99 99 98 84 73 70 79 79 71 58 57 56 57 63 78 76 78 66 74 78 69
64 63 63 67 70 73 72 72 77 79 81 83 86 89 93 95 98 98 100 100 100 100 99 99 94 86 75 71 73 80 77 68 60 55 60 65 75 68 56 76 73 89 64
67 66 66 64 66 68 69 69 73 76 78 79 80 86 91 96 98 99 100 100 99 99 99 98 98 94 75 73 66 72 69 64 53 50 62 78 75 81 74 59 66 79 86
72 71 69 68 68 70 71 72 72 74 75 76 77 83 89 96 99 99 99 100 100 100 100 100 100 96 84 65 69 80 86 84 81 75 71 70 59 54 57 58 59 79 78

GFSMW_925_rhum_099.txt.gz
RH
42 40 51 58 71 79 78 76 76 75 77 85 83 79 76 69 69 67 70 68 71 72 72 73 72 70 61 62 66 69 71 70 69 70 70 69 67 65 66 68 68 69 66
40 45 56 62 70 77 76 74 71 74 82 77 84 84 82 81 72 75 72 71 73 72 73 74 74 73 69 66 70 71 73 73 74 74 79 89 75 69 69 70 70 71 69
36 48 61 67 67 71 76 70 71 72 72 81 77 82 83 86 86 82 81 76 74 77 79 79 74 76 74 74 74 74 74 74 75 77 74 93 93 80 73 75 69 67 68
33 48 57 66 68 68 69 72 70 65 74 70 78 79 78 83 76 80 77 81 78 78 82 85 81 82 84 80 79 76 79 79 84 85 81 80 79 88 85 73 70 68 68
33 47 52 60 66 67 69 73 74 76 76 81 78 75 73 72 73 79 74 69 67 67 63 64 77 76 75 76 75 69 70 71 89 89 87 89 87 87 89 92 86 77 77
33 44 45 54 71 77 78 78 76 79 78 79 75 77 76 76 77 83 83 76 72 73 71 72 70 73 70 66 64 63 62 66 72 84 77 73 90 96 95 98 93 91 86
33 47 61 58 53 56 72 77 88 92 89 81 71 68 66 64 62 60 61 62 73 76 70 73 78 76 67 56 51 58 63 52 58 70 82 74 90 89 89 91 93 93 94
37 60 59 57 48 44 51 58 76 89 87 72 65 62 64 64 66 65 56 54 53 63 68 70 77 82 74 65 61 55 66 61 66 77 76 78 81 91 93 88 89 99 99
41 58 57 53 53 48 43 41 48 65 77 82 82 80 66 58 56 58 61 64 63 70 73 75 82 75 74 78 89 95 94 92 92 92 91 92 95 96 94 95 87 85 99
40 53 51 50 50 47 45 45 44 46 51 61 62 66 71 77 76 74 71 72 73 71 68 64 59 56 61 67 76 84 88 87 99 98 97 100 100 100 100 99 93 92 91
36 39 48 52 52 52 51 45 46 48 53 58 60 59 59 58 58 57 56 58 59 60 59 61 66 70 73 74 75 80 86 94 94 98 94 100 98 100 100 99 98 94 93
41 41 63 61 56 56 54 52 55 53 57 60 60 58 55 56 53 52 52 49 58 64 67 68 75 78 79 82 87 92 91 94 98 98 100 100 97 100 100 99 96 91 93
50 56 69 70 65 62 59 60 61 62 63 63 62 62 64 66 60 56 63 67 67 66 66 68 71 74 77 84 89 94 92 98 99 99 100 100 100 100 97 94 92 92 93
55 60 72 74 66 65 67 67 66 64 64 63 62 63 65 64 62 62 60 61 63 63 66 66 67 71 75 78 85 90 93 91 95 98 98 98 96 96 94 93 93 91 97
58 60 67 74 68 66 66 66 65 64 64 64 65 66 66 64 62 60 63 65 68 69 70 70 72 74 76 78 83 88 91 91 92 93 94 94 94 95 94 92 88 90 92
59 60 62 70 71 66 66 65 65 65 64 64 65 66 65 63 62 63 66 69 70 72 74 77 80 81 80 83 89 95 93 92 93 94 96 95 95 93 94 94 91 88 88
61 62 65 67 66 63 62 64 63 65 66 66 67 66 64 64 68 71 73 75 77 79 80 81 84 85 87 94 98 98 98 95 94 92 93 94 95 94 92 91 89 87 87
58 62 62 60 58 59 60 61 63 64 66 68 67 67 68 70 73 75 77 79 82 85 85 86 87 89 92 91 97 94 96 99 99 96 98 98 93 91 89 87 82 81 82
64 58 52 54 55 57 59 61 64 65 67 68 69 70 70 74 78 80 82 87 91 97 93 90 91 93 95 99 98 93 100 100 100 100 100 99 96 89 75 63 52 52 60
66 70 55 53 53 56 58 62 65 66 68 68 66 68 71 74 77 79 84 98 100 99 99 94 96 98 99 99 99 96 100 100 99 97 87 91 87 80 79 54 50 52 61
72 73 65 64 57 56 57 62 64 66 64 67 68 70 74 77 79 82 89 100 100 100 99 98 98 99 99 98 100 98 90 92 86 80 77 79 72 80 82 60 56 52 54
72 72 73 74 69 62 58 62 66 65 67 71 72 74 76 80 83 88 100 100 100 100 100 100 100 99 99 98 99 99 72 65 69 70 66 72 94 82 69 57 51 56 56
69 70 71 71 71 70 66 68 68 68 70 73 75 78 81 84 87 94 99 99 100 100 99 100 99 99 92 85 93 98 80 65 60 56 56 60 82 83 84 49 67 75 64
69 68 68 71 72 72 73 74 76 76 76 78 80 82 85 89 93 96 99 99 100 100 100 100 99 99 92 83 84 90 80 74 69 53 57 71 83 78 69 81 75 78 68
71 71 71 72 71 69 70 73 76 79 82 83 84 87 88 93 94 97 99 98 99 100 100 99 99 99 96 87 97 87 78 76 66 53 58 67 79 78 70 67 76 81 79
81 82 81 77 75 73 72 72 72 75 77 79 80 83 85 89 92 96 99 99 98 99 100 100 99 99 100 97 98 86 74 69 62 69 59 71 75 76 77 72 59 67 81

GFSMW_925_rhum_102.txt.gz
RH
55 60 72 78 70 66 71 72 80 74 83 84 78 71 70 74 71 67 67 66 66 58 58 56 61 63 63 63 64 66 69 70 70 72 71 70 68 67 66 68 70 71 72
49 55 64 73 76 74 68 70 73 72 79 80 81 78 70 68 67 71 73 69 69 70 69 69 69 70 70 62 63 66 70 73 73 74 82 90 75 71 73 72 72 74 74
46 53 73 77 77 78 77 76 68 71 76 73 91 79 79 76 78 70 73 75 73 76 74 74 76 75 74 71 68 72 78 76 81 82 77 92 93 85 77 84 81 79 78
38 49 65 80 80 78 74 70 70 72 76 79 82 72 79 90 76 76 79 80 80 79 78 79 85 82 86 88 81 86 87 90 92 93 87 87 90 94 90 78 76 76 73
39 50 58 72 74 74 70 72 74 77 78 79 80 76 82 82 79 79 84 88 87 84 89 88 88 91 85 82 86 80 78 75 79 86 91 86 89 96 100 96 89 78 79
38 47 55 64 77 79 77 73 75 76 80 81 70 73 78 80 87 97 90 81 77 78 75 74 74 78 93 85 77 74 75 74 70 68 68 84 90 96 99 99 95 88 86
39 49 61 74 83 84 82 82 83 86 73 72 73 79 77 72 73 79 77 75 87 77 80 72 67 63 67 76 74 75 65 65 68 67 77 69 70 76 82 91 95 97 95
40 53 64 68 76 81 82 83 80 78 78 74 75 81 73 70 69 69 69 64 62 69 74 73 75 76 81 80 79 81 65 65 65 63 51 95 64 76 88 84 93 99 100
41 59 65 60 65 72 77 82 82 87 88 86 75 73 69 66 64 66 70 68 63 64 66 69 73 77 77 80 88 90 89 93 88 96 95 94 92 93 90 91 91 90 99
42 63 65 58 55 53 54 64 77 85 86 80 68 61 63 66 68 70 62 62 67 69 74 78 78 74 73 72 74 75 76 76 78 78 99 100 99 99 100 100 100 96 91
45 62 68 57 55 50 48 49 58 72 86 86 82 81 75 73 70 68 66 68 70 72 71 68 65 65 69 73 74 76 80 83 82 86 98 100 100 100 100 100 100 100 99
44 54 63 61 62 60 55 53 54 55 60 65 67 68 68 70 72 70 68 65 60 58 62 69 72 72 75 76 80 83 88 91 98 100 100 98 100 100 100 100 100 99 100
60 74 77 72 67 64 60 54 55 57 59 60 64 66 67 68 68 66 63 63 61 57 59 60 63 68 69 70 74 80 86 89 91 100 99 93 100 100 100 100 100 97 95
62 72 79 81 72 66 64 65 67 63 64 65 64 63 62 60 59 60 63 64 63 60 60 60 62 65 66 68 71 76 84 92 89 90 99 99 99 100 100 99 97 95 96
63 71 77 80 75 73 71 68 67 67 66 64 62 60 61 61 61 62 63 63 64 62 61 62 64 66 68 70 71 76 84 92 94 87 94 96 97 98 98 97 95 94 93
58 63 70 75 76 72 70 68 66 66 65 64 64 64 64 64 64 64 65 65 65 65 67 70 73 75 77 80 80 89 89 92 93 94 94 94 96 98 98 97 95 92 90
62 63 67 70 70 70 68 68 66 65 66 66 66 66 66 66 66 67 68 69 70 71 72 73 75 78 80 86 93 98 97 96 94 92 91 94 96 97 96 94 92 92 92
60 63 64 64 65 66 66 65 66 67 67 67 67 68 68 68 70 72 73 72 73 75 78 80 82 85 86 89 97 91 90 93 98 98 94 94 93 94 96 94 91 88 87
68 68 58 58 61 62 62 64 67 67 69 69 69 69 68 70 72 73 73 76 79 82 88 87 87 90 91 92 99 98 92 95 100 100 100 100 98 93 90 87 82 79 75
76 77 62 57 58 62 63 64 67 68 70 68 67 67 68 69 71 74 78 82 85 94 100 99 93 95 96 97 100 95 93 100 100 100 99 99 98 93 87 67 58 61 71
80 79 70 64 60 60 62 65 66 68 64 66 67 68 70 71 74 78 81 85 93 100 100 97 94 94 94 95 98 99 94 97 98 96 90 82 87 83 86 75 57 50 56
77 77 79 78 70 64 65 66 67 62 65 67 68 69 71 74 78 80 84 92 100 100 99 100 98 96 97 98 95 98 99 83 87 84 81 77 84 82 82 83 57 61 59
74 75 74 75 74 71 67 68 66 67 67 71 73 74 76 79 82 85 91 99 100 100 99 100 99 98 97 98 97 98 99 81 76 61 61 59 76 93 83 72 52 70 78
75 72 71 74 76 74 73 75 73 74 75 76 78 80 82 85 88 92 95 96 99 100 99 99 99 99 99 98 83 85 96 95 75 64 56 60 66 83 79 75 70 72 77
78 75 75 75 75 72 71 77 80 82 83 84 84 86 87 89 90 92 92 94 98 99 99 99 99 100 99 96 97 88 91 88 80 68 56 68 80 89 81 73 77 78 78
82 83 84 81 79 76 76 75 74 76 80 82 83 84 86 88 91 92 92 94 97 99 99 100 100 99 99 99 100 99 99 89 80 79 61 68 72 76 79 80 68 75 77

GFSMW_925_rhum_105.txt.gz
RH
60 51 93 82 69 69 71 82 82 98 96 85 92 88 82 80 74 68 55 52 51 52 56 61 65 70 78 72 73 69 70 68 70 72 71 70 68 69 70 71 71 73 74
62 53 68 100 81 81 68 69 70 81 81 91 88 90 78 75 70 64 64 66 58 59 55 56 62 66 67 68 68 68 66 68 73 75 82 90 75 76 78 76 75 76 78
75 54 67 91 96 93 83 68 68 67 74 78 95 82 86 83 78 72 68 70 69 68 65 66 70 73 74 71 66 67 72 73 80 82 80 94 93 90 80 82 88 83 81
68 53 58 81 83 66 65 70 65 67 70 64 72 81 76 82 71 81 76 78 76 71 73 75 76 79 79 78 75 73 81 88 92 96 95 95 95 96 95 86 81 82 80
67 52 53 69 69 72 73 66 71 68 78 67 68 72 75 71 65 68 85 84 82 86 85 83 91 91 94 87 82 91 100 91 95 99 96 100 100 100 99 97 93 84 83
59 40 43 53 74 80 82 82 74 74 69 82 84 69 80 74 82 84 92 90 91 88 90 87 85 90 86 84 86 86 82 90 87 90 90 88 88 98 100 99 97 89 82
41 40 65 81 79 83 84 85 81 80 87 70 80 84 85 80 76 83 98 99 93 88 83 82 80 80 85 94 94 92 81 80 86 86 88 85 82 82 88 96 93 97 93
40 43 59 74 76 74 84 89 85 82 71 69 70 77 79 76 77 76 72 76 76 75 79 85 88 82 79 85 87 79 79 78 83 78 80 78 70 71 82 92 82 99 100
44 43 57 67 75 78 78 78 78 76 65 60 68 74 81 79 73 72 70 73 72 72 75 80 76 71 73 79 80 80 85 91 91 94 95 97 99 99 99 100 97 92 99
42 44 59 62 66 70 72 84 85 78 70 73 77 77 82 81 76 73 72 70 69 64 62 65 70 77 80 83 84 83 79 81 83 86 88 90 92 93 93 98 99 100 98
43 49 60 58 65 72 77 83 85 82 84 90 89 84 78 76 74 75 76 69 63 67 73 76 78 78 78 75 71 71 74 78 82 83 91 100 98 98 93 100 100 100 100
50 56 65 62 66 65 62 62 69 82 91 95 88 83 80 79 76 74 72 73 76 77 75 73 69 66 67 69 71 73 78 84 87 89 99 99 95 95 99 99 100 99 99
67 80 78 77 72 64 62 60 59 64 77 83 84 82 80 78 78 78 77 73 68 65 64 65 66 65 65 65 65 67 72 79 88 94 99 100 93 95 99 100 100 100 100
67 78 83 81 76 70 65 64 64 60 59 64 68 70 71 70 68 66 62 60 61 60 60 62 62 61 60 61 62 65 68 74 85 94 93 94 98 100 100 100 100 100 100
65 72 80 86 81 78 74 69 66 66 67 66 66 65 64 62 60 60 61 61 61 61 61 62 64 66 67 68 69 70 74 79 87 93 93 93 94 97 100 100 100 100 100
62 66 74 79 81 78 75 72 71 70 68 67 66 65 64 64 64 64 64 62 62 64 67 70 71 71 72 74 77 79 80 87 91 92 93 94 94 95 98 99 99 99 98
61 64 69 73 74 73 70 70 70 69 70 68 68 68 67 66 66 65 64 66 68 69 70 72 73 74 76 83 86 89 88 89 94 94 93 90 89 95 97 96 94 92 95
74 71 67 65 65 67 69 70 70 69 69 70 70 69 68 67 67 67 68 69 72 74 76 76 77 80 82 86 95 99 92 89 89 95 97 96 94 94 95 96 93 91 90
72 74 72 63 64 66 68 68 70 70 71 70 69 68 68 68 68 70 72 74 76 79 82 82 81 81 83 87 97 96 91 88 91 99 100 99 100 99 98 95 92 87 82
78 83 78 65 62 66 67 68 70 70 70 69 68 68 68 68 69 71 74 77 81 83 82 91 95 88 89 90 91 98 98 92 95 99 100 99 100 99 99 84 76 81 79
82 81 80 71 65 66 67 69 71 69 66 67 68 69 69 69 71 75 77 80 84 88 97 99 92 92 92 90 90 97 99 96 93 96 97 97 98 100 99 93 67 57 60
81 81 83 83 76 71 70 71 71 69 69 69 70 70 70 72 74 77 80 84 88 93 100 100 99 94 92 92 92 93 98 100 91 84 93 96 93 93 89 95 82 67 64
78 77 79 80 78 75 73 73 72 70 69 70 71 72 74 76 78 80 84 90 94 100 99 99 99 97 93 94 94 95 98 100 90 79 82 65 71 97 84 80 72 78 86
80 76 73 77 78 76 78 77 75 73 73 75 78 79 80 82 84 87 89 92 95 98 100 99 99 99 96 96 96 95 91 91 100 85 80 58 61 62 87 83 75 68 70
84 80 80 80 80 75 77 80 82 82 82 82 83 84 84 87 88 90 89 90 88 91 97 99 100 100 99 94 97 98 96 85 90 89 77 64 65 82 89 82 74 70 78
79 83 86 84 84 80 80 80 79 78 80 83 85 86 88 89 90 91 91 91 91 91 95 98 100 98 99 99 99 99 99 100 100 97 86 74 61 74 85 87 82 74 79

GFSMW_925_rhum_108.txt.gz
RH
77 74 92 84 77 74 98 100 100 100 100 100 100 97 90 87 84 78 68 64 64 64 65 66 67 72 70 71 80 82 82 76 73 76 72 68 72 72 73 73 73 74 75
78 69 94 90 72 68 89 96 100 100 100 100 94 94 93 84 82 80 76 65 58 60 61 60 62 66 68 75 82 80 75 75 76 80 83 88 80 81 80 78 75 75 76
75 72 91 100 90 80 80 94 98 94 100 100 100 97 96 94 88 81 73 68 62 57 56 58 62 64 70 75 74 74 76 78 82 85 90 95 94 92 81 79 86 84 82
71 60 63 95 99 84 79 72 87 99 94 94 80 74 82 93 89 83 71 68 75 70 65 65 69 73 79 82 80 82 80 82 90 99 95 95 99 98 96 88 85 84 84
73 64 54 59 88 98 91 84 96 100 98 86 76 59 88 88 82 86 81 80 80 79 77 81 86 95 96 94 89 86 82 81 90 90 89 100 100 100 100 98 96 88 86
70 61 44 42 67 87 68 69 80 91 93 96 96 94 87 74 82 89 75 81 87 84 93 88 89 79 88 100 100 93 91 92 93 98 95 94 93 97 100 100 97 93 86
71 56 46 70 77 79 99 100 97 100 89 75 88 82 68 69 76 68 65 76 95 98 100 97 100 94 87 89 90 91 93 87 97 93 90 88 88 92 93 92 92 98 95
65 48 42 59 75 73 83 90 97 93 60 62 64 69 68 65 74 75 64 77 95 96 94 85 82 80 81 82 89 93 87 84 83 84 86 89 96 93 88 95 95 97 100
43 41 41 52 72 78 78 64 80 89 74 67 70 74 80 83 82 85 77 84 88 85 86 89 86 84 82 82 87 88 88 89 94 100 99 100 99 99 100 100 98 99 97
42 42 45 54 69 78 78 80 80 85 82 84 84 83 86 88 85 80 80 84 84 78 77 77 78 76 78 82 85 87 86 81 77 77 78 82 84 88 95 97 100 100 100
42 43 46 58 68 76 81 85 82 82 79 86 88 88 88 86 85 84 82 78 75 71 69 72 75 79 81 79 76 71 69 73 78 80 85 96 99 99 93 92 100 99 100
65 66 53 60 67 74 83 84 90 90 92 91 91 91 89 85 81 78 78 76 70 71 75 77 77 74 71 70 71 71 72 74 77 84 92 100 99 99 92 93 94 100 100
71 79 79 76 75 74 77 78 78 87 93 97 92 89 86 83 80 78 76 76 75 75 70 66 65 66 66 67 66 65 66 69 76 85 91 98 98 96 95 99 99 100 100
73 78 82 85 80 74 69 68 70 80 89 93 90 87 86 84 81 79 76 72 65 60 60 60 61 61 62 62 62 63 64 67 72 80 88 93 93 97 99 99 100 100 100
68 81 86 89 86 82 76 72 70 71 74 76 76 76 75 73 71 68 64 63 63 62 62 60 62 63 64 64 65 66 67 69 74 80 87 92 94 95 98 99 100 100 100
71 71 80 83 84 82 80 76 73 72 72 70 70 70 68 66 65 66 65 64 62 61 59 62 64 66 69 74 74 72 72 75 78 83 88 91 90 89 93 97 98 100 100
78 73 71 76 78 78 76 77 77 75 72 70 70 69 68 66 66 66 64 64 64 65 67 69 70 72 76 80 84 89 86 84 84 87 92 93 92 88 88 92 96 95 95
77 80 80 71 70 73 73 72 72 73 73 73 72 71 69 68 68 68 68 68 70 72 73 74 74 75 79 85 95 98 93 89 86 90 94 98 98 95 94 96 94 92 90
79 82 80 75 67 70 73 72 74 73 72 73 72 72 71 70 72 71 71 73 74 77 78 79 79 80 84 87 92 96 90 89 89 91 94 99 98 100 100 97 95 92 87
84 89 82 76 70 71 71 71 73 73 73 71 70 70 71 71 71 71 74 75 77 80 83 83 88 86 84 87 89 93 93 91 87 87 94 98 98 100 100 95 82 80 82
83 84 84 80 74 74 73 73 74 73 70 72 72 72 71 69 71 73 75 77 81 84 85 88 88 83 85 87 88 89 99 99 97 91 85 91 94 98 99 100 94 70 63
82 84 86 87 84 79 73 76 76 73 71 72 74 74 75 75 74 76 78 82 85 87 88 91 91 87 87 89 89 91 95 100 99 97 83 84 90 90 98 99 97 79 75
82 80 82 81 83 79 78 77 77 73 72 73 74 75 74 76 79 79 81 86 88 90 91 96 96 91 90 92 90 92 95 99 100 99 89 83 67 72 95 85 83 78 85
85 80 78 81 84 87 83 83 80 78 76 77 79 80 80 81 82 83 84 86 89 91 93 97 95 93 94 93 92 93 93 94 97 100 96 84 61 67 70 92 80 77 69
88 85 84 85 86 81 80 82 85 86 84 84 85 85 85 86 86 87 86 87 86 86 87 88 92 94 95 93 95 96 96 96 93 90 94 89 73 62 75 84 82 76 68
78 84 88 89 89 86 85 84 81 79 80 83 86 88 89 90 91 92 91 89 89 90 91 91 93 93 96 99 99 100 100 99 99 100 99 93 81 73 66 75 83 82 76

GFSMW_925_rhum_111.txt.gz
RH
73 89 78 80 82 94 97 99 100 100 100 100 100 100 95 75 76 78 75 72 71 77 80 81 84 85 84 83 85 88 88 87 80 75 73 72 74 75 78 76 73 73 72
73 84 96 90 97 85 91 99 100 100 100 100 100 100 99 88 75 80 74 64 68 71 71 69 72 78 81 84 87 89 88 80 75 79 80 79 80 81 78 79 80 79 79
73 79 96 87 93 90 94 97 100 100 100 100 100 98 99 96 94 86 81 74 70 70 70 68 70 76 82 79 80 89 84 76 78 81 81 92 92 95 88 81 86 90 87
68 67 91 97 96 84 87 90 98 96 99 100 100 99 97 95 94 92 85 83 81 69 71 74 77 77 85 89 86 81 80 77 86 93 89 88 91 96 93 92 86 86 88
65 62 74 91 99 99 97 100 98 91 96 100 100 100 100 96 86 93 90 85 82 70 73 74 80 85 83 80 92 90 88 88 85 91 96 100 93 99 100 99 99 96 89
68 59 51 53 83 98 100 98 91 89 87 96 99 98 85 81 88 82 83 84 82 83 94 92 90 86 82 85 85 98 99 94 100 96 96 99 96 98 98 99 98 96 86
67 53 59 75 88 100 99 86 99 97 82 80 81 92 96 94 80 75 90 75 90 99 92 93 100 99 89 84 100 99 99 100 99 99 98 95 94 94 93 95 96 93 83
58 50 47 64 85 100 100 85 93 94 85 86 98 100 98 89 90 89 75 88 94 99 88 99 100 97 88 88 92 98 97 94 89 87 86 87 94 100 99 100 93 88 91
47 43 43 60 71 86 98 91 82 97 87 85 91 85 81 90 85 86 98 99 100 100 100 96 92 94 93 89 91 91 89 88 90 99 98 99 99 98 98 100 99 99 95
54 48 42 55 75 83 90 97 98 98 98 98 97 99 98 100 100 100 99 94 89 90 94 96 91 86 81 82 87 90 90 85 78 74 72 74 81 89 91 93 100 99 97
52 48 42 59 75 88 95 98 100 97 96 97 94 94 96 99 94 91 91 89 86 86 86 82 81 82 84 84 81 77 73 72 75 80 85 98 100 98 97 94 96 100 100
72 68 60 60 71 84 96 99 100 91 88 91 96 95 94 92 88 87 85 80 77 78 76 80 80 80 74 66 62 61 63 66 72 76 85 99 100 98 97 93 95 94 100
74 76 73 72 74 80 91 96 100 100 96 94 94 97 94 89 86 85 84 79 76 76 77 75 68 62 61 59 58 57 60 63 68 73 78 84 90 91 98 100 100 98 99
75 79 80 82 82 79 82 82 93 100 100 96 95 92 90 86 83 81 79 77 76 73 67 62 60 60 60 57 58 58 62 63 67 70 78 82 86 89 93 94 97 98 98
71 80 82 83 87 83 79 78 85 93 96 94 92 90 88 84 81 80 77 72 66 63 62 61 61 60 59 60 59 60 62 65 68 73 78 82 87 90 93 98 99 99 99
79 76 78 82 85 85 81 76 75 78 83 84 84 83 81 79 76 72 67 64 62 62 61 61 64 69 70 68 64 64 68 71 72 72 76 81 86 87 85 83 90 99 100
74 77 81 78 82 82 80 80 78 78 75 75 78 77 74 71 68 66 65 66 67 68 68 71 72 70 72 73 70 70 75 75 77 78 80 86 92 90 89 90 90 94 97
79 79 85 84 75 79 79 79 79 77 76 74 73 72 69 68 70 70 69 69 70 71 72 71 69 71 76 77 80 78 83 85 85 83 87 92 94 92 94 96 97 92 90
86 90 86 84 77 78 77 76 79 79 78 78 76 74 71 70 71 70 70 71 71 72 72 72 74 74 77 83 91 96 89 88 88 85 90 91 92 96 97 95 95 91 90
87 91 87 82 75 78 78 76 78 78 78 77 76 75 74 71 72 72 73 74 76 76 80 80 80 78 78 84 87 90 91 87 88 85 83 87 92 97 98 99 92 81 79
85 86 86 88 86 80 78 78 78 76 74 74 75 75 75 73 72 72 73 74 78 81 83 85 85 80 82 85 86 88 87 86 90 92 88 81 84 90 99 100 98 90 71
83 84 86 90 88 84 79 77 75 74 74 74 73 73 74 74 74 73 76 81 84 87 88 90 92 88 88 88 87 88 91 97 96 94 94 84 80 86 91 99 98 96 77
83 80 82 88 88 84 82 81 83 80 78 77 77 78 78 78 79 79 81 86 88 89 93 98 93 86 86 89 89 90 92 98 100 100 99 93 83 69 76 96 89 96 82
87 83 80 84 88 91 90 90 85 82 81 81 82 82 80 80 81 82 83 86 90 93 92 92 89 89 88 85 89 89 91 91 92 100 100 97 88 66 63 73 88 82 77
89 88 88 89 90 87 86 85 88 91 90 92 93 93 92 92 90 90 89 88 86 87 88 86 86 89 92 88 89 90 91 95 94 95 94 95 94 80 65 70 76 79 76
80 86 89 90 93 90 90 90 88 85 84 91 92 93 93 96 96 94 92 92 92 92 90 89 89 88 94 94 95 95 98 98 99 100 98 97 94 89 77 69 68 73 77

GFSMW_925_rhum_114.txt.gz
RH
50 54 76 73 99 85 90 95 98 98 98 100 100 99 91 86 85 86 85 85 82 86 85 82 85 89 87 85 87 88 88 88 84 72 64 68 75 78 81 82 80 76 79
53 53 66 98 92 94 91 93 96 100 100 98 95 96 93 87 84 87 87 87 88 92 91 90 90 91 89 91 91 90 90 82 77 67 70 62 69 80 80 76 86 92 88
55 61 64 94 91 93 87 94 99 98 99 99 100 99 98 96 94 96 92 90 88 82 93 94 97 95 98 98 93 88 86 75 86 84 77 71 68 73 89 86 80 84 88
58 64 62 88 93 98 98 91 100 99 98 99 100 99 97 93 88 92 96 74 73 76 76 79 80 88 93 89 85 89 87 82 90 87 85 94 88 75 72 88 88 83 89
70 66 61 84 87 98 95 99 95 100 100 100 100 100 97 90 93 96 99 92 86 84 75 79 93 86 77 74 74 78 76 79 94 93 100 99 100 98 94 98 97 90 85
77 62 69 95 98 99 90 93 99 100 100 100 100 99 98 100 100 100 97 98 95 90 83 80 79 79 84 89 80 79 83 84 99 99 99 93 94 95 97 97 93 95 86
77 53 63 93 97 96 97 95 88 92 89 91 95 100 99 97 90 98 77 99 100 96 86 85 88 91 89 91 92 100 97 92 96 99 99 97 90 88 90 88 82 87 88
68 50 55 79 99 99 99 100 99 95 94 91 96 95 100 97 98 92 88 93 90 84 86 90 92 100 100 99 96 99 99 99 99 100 100 93 94 98 98 94 86 79 68
80 50 54 69 95 100 100 100 100 96 99 100 92 95 80 100 96 88 87 92 93 92 98 85 99 100 100 99 100 100 100 100 100 100 99 98 97 96 97 98 98 91 80
53 40 52 66 79 98 100 89 98 98 90 94 90 86 86 98 83 81 94 86 94 86 93 100 100 99 96 91 98 99 95 99 96 94 94 88 81 96 98 100 99 98 97
76 48 46 65 84 91 100 100 100 100 98 99 98 91 93 86 88 92 97 98 93 100 100 99 100 93 90 90 87 87 87 87 80 82 90 90 90 90 92 98 99 98 99
82 59 50 56 77 92 99 100 100 99 100 100 99 100 100 100 100 100 100 100 100 100 98 94 89 86 83 81 84 80 77 80 83 88 87 86 87 90 98 96 96 100 100
79 62 59 55 65 84 93 100 100 100 100 100 100 100 100 100 100 100 100 99 96 92 87 83 80 80 79 74 74 70 74 79 82 85 85 84 87 94 97 99 99 99 99
72 74 68 68 67 75 84 96 100 100 100 100 100 100 100 100 99 94 89 87 82 80 81 81 78 70 65 63 61 63 67 70 68 66 69 72 80 90 94 97 94 99 98
65 67 70 69 68 70 76 88 98 100 100 99 99 99 97 94 92 90 87 83 81 80 77 71 66 63 62 59 58 59 62 66 68 68 69 70 74 82 89 96 97 98 99
61 67 62 64 68 71 72 79 90 96 96 96 95 96 92 90 90 88 85 82 78 73 69 68 65 64 60 59 58 59 61 64 69 72 73 74 81 88 87 87 86 90 99
60 67 64 66 70 72 73 73 78 83 86 88 89 89 88 86 84 80 76 72 69 67 66 66 67 72 71 66 64 63 65 69 71 73 76 86 85 90 92 89 87 91 94
63 64 67 68 68 74 75 77 78 78 81 80 82 82 82 83 82 81 80 75 71 69 68 70 71 75 82 71 69 71 73 75 76 76 79 92 93 94 92 95 96 97 91
68 72 74 74 72 74 75 76 77 79 79 77 78 80 79 80 81 80 77 77 75 73 73 72 73 73 74 78 80 81 81 79 80 77 79 89 94 91 88 92 88 90 90
75 77 77 73 70 79 77 73 73 72 75 78 79 80 79 78 82 80 79 77 79 75 78 79 77 82 89 86 93 88 85 85 84 80 80 78 82 88 97 100 94 86 80
76 77 79 82 84 82 78 76 76 77 77 79 83 83 81 81 82 79 76 77 79 81 86 92 98 94 92 91 87 86 88 86 85 88 88 81 74 78 90 99 99 92 84
72 78 80 86 89 87 80 80 83 85 78 77 75 76 78 77 79 78 77 86 91 93 96 93 96 88 84 81 84 90 100 98 97 94 93 91 82 80 85 96 99 96 92
75 75 76 80 89 95 90 85 92 89 88 86 86 88 88 84 83 85 89 86 88 84 90 99 95 88 85 86 85 87 90 99 100 99 98 99 91 81 76 85 98 96 92
78 77 74 75 83 88 89 95 94 90 86 85 87 88 86 87 88 92 90 84 86 85 89 98 94 87 91 92 94 91 92 94 99 100 100 100 95 88 73 63 85 88 81
79 80 78 78 84 86 90 90 89 95 94 98 97 94 91 90 90 92 92 89 88 92 94 95 92 90 90 87 86 92 91 94 92 97 99 99 96 93 84 79 79 82 82
74 76 82 82 86 85 89 89 88 94 89 88 92 97 98 100 100 100 98 97 95 94 94 94 93 91 91 87 88 91 94 95 96 100 97 94 93 93 90 80 73 75 80

GFSMW_925_rhum_117.txt.gz
RH
40 42 52 81 98 92 90 100 98 89 90 100 100 93 75 59 60 61 62 66 61 62 60 58 64 69 73 73 75 75 79 82 79 71 67 66 64 68 70 73 72 70 73
44 41 52 77 97 92 78 99 91 95 95 95 98 91 85 80 76 69 61 59 58 63 66 70 70 74 76 77 79 80 83 79 80 69 63 65 68 71 75 81 84 86 86
45 41 49 72 98 94 84 80 96 95 95 94 92 91 82 81 83 82 78 76 76 78 75 75 78 80 80 82 84 86 86 78 75 79 75 67 73 68 81 84 82 80 82
43 43 52 66 96 91 83 96 90 99 98 94 94 90 90 86 82 86 87 86 83 87 87 86 89 88 86 92 91 85 85 87 93 83 80 86 84 83 76 80 82 85 83
45 51 54 63 94 92 81 98 97 98 99 94 94 93 91 84 86 89 89 92 86 90 95 92 86 88 92 94 95 93 95 95 92 89 92 95 93 88 86 84 90 82 79
61 61 57 61 91 89 86 93 100 99 96 91 85 94 92 88 87 92 90 94 92 96 91 86 91 93 89 82 84 88 86 96 93 93 90 94 88 90 89 91 86 87 83
70 61 56 79 94 98 98 95 99 100 99 97 99 100 99 99 94 94 95 96 100 100 98 86 81 77 76 79 71 80 86 88 98 95 96 94 90 84 80 81 82 82 79
67 52 61 88 92 99 97 91 96 98 98 95 97 100 98 98 100 100 83 99 99 97 88 82 79 82 82 80 80 87 92 91 96 98 92 93 94 88 90 93 89 87 77
69 64 59 90 93 97 98 97 98 97 98 94 85 95 92 87 96 97 98 98 94 96 97 92 93 94 91 92 90 96 98 96 96 96 95 96 93 99 96 97 92 95 83
72 66 75 88 89 90 92 95 98 96 89 100 90 95 90 89 89 90 88 98 89 91 95 93 86 95 91 76 95 98 98 96 97 98 98 98 97 86 92 95 96 95 89
87 74 85 90 99 99 100 100 99 100 100 100 99 95 98 99 97 90 92 94 92 94 95 96 89 96 93 98 100 99 97 99 96 91 87 86 85 85 87 92 94 94 92
82 71 81 86 94 100 100 99 100 99 100 100 99 100 100 99 100 100 91 80 79 79 70 93 100 100 99 99 97 92 90 87 86 84 80 81 81 82 88 92 88 92 94
81 70 74 73 88 98 100 100 100 100 99 100 98 99 99 100 100 100 99 98 98 99 100 100 100 99 94 88 86 82 79 74 73 76 78 80 82 83 91 91 95 97 97
84 78 63 64 77 86 98 100 100 100 100 100 99 100 100 100 100 100 100 100 100 100 99 97 92 87 83 79 74 68 67 69 73 74 78 80 82 84 88 91 90 92 94
74 81 80 65 65 69 84 97 99 100 100 100 100 100 99 100 100 100 100 99 98 93 88 83 81 78 74 67 63 64 68 71 71 69 71 72 72 74 80 84 91 94 96
59 61 66 72 68 67 72 86 95 98 96 97 98 98 98 99 99 96 93 90 86 82 80 79 75 70 65 61 57 58 65 68 70 71 69 70 70 74 78 80 81 82 93
59 58 61 60 66 66 67 72 82 87 90 93 94 93 92 93 93 90 87 85 82 80 76 72 69 67 60 58 58 61 63 65 67 68 69 75 75 78 87 88 83 85 87
63 61 60 64 63 65 69 71 74 78 82 86 89 89 88 89 89 87 86 85 82 79 77 76 75 72 66 63 64 64 64 67 69 70 75 82 87 89 90 94 92 91 94
64 65 64 64 65 68 68 69 72 75 74 76 78 79 82 82 82 84 84 82 80 80 79 78 80 80 75 69 69 69 73 72 71 72 75 80 86 90 86 92 91 87 86
69 69 69 68 68 69 67 65 66 68 73 72 75 79 81 82 82 83 87 88 81 78 80 80 79 84 84 77 73 74 78 78 78 74 78 73 76 75 80 96 97 91 84
70 71 76 79 78 75 70 71 74 81 81 81 81 80 80 80 82 83 80 80 83 82 87 86 86 82 86 82 82 82 88 82 81 83 82 80 76 78 81 94 99 96 91
65 72 75 81 86 84 75 82 84 83 83 82 83 85 85 84 88 87 88 89 88 92 93 91 90 89 86 86 85 83 89 92 89 89 87 87 83 79 80 84 96 93 93
66 66 70 78 85 89 88 92 93 85 82 78 79 82 83 84 84 86 86 85 85 83 84 86 89 87 84 82 82 83 88 100 99 97 95 98 96 88 79 74 87 98 94
68 66 66 68 74 84 88 92 94 90 83 83 84 85 81 79 78 81 80 78 78 77 76 87 93 85 86 86 86 86 89 94 100 99 99 98 98 94 86 78 66 72 90
67 67 66 68 72 75 80 84 86 86 93 96 95 92 94 94 90 91 91 87 80 82 82 86 90 86 86 85 85 85 87 91 92 99 99 99 98 96 92 86 80 78 83
65 67 70 71 73 74 79 84 86 85 82 79 86 92 96 98 98 96 96 98 97 96 96 96 96 95 93 91 90 90 90 90 93 97 98 95 94 93 90 88 81 75 76

GFSMW_925_rhum_123.txt.gz
RH
37 29 27 29 46 41 53 63 56 48 62 100 100 100 99 88 84 74 67 71 69 69 72 69 73 67 62 58 57 55 60 69 74 75 71 68 68 69 69 69 69 69 65
40 32 32 46 53 55 56 56 63 67 52 96 93 100 98 81 79 70 62 65 70 66 72 72 67 65 61 58 56 56 76 79 77 74 76 88 79 77 76 76 76 75 76
39 34 38 67 56 65 82 68 69 68 48 100 90 89 85 74 78 76 70 64 70 69 66 65 65 63 59 59 64 73 74 80 81 75 72 91 91 86 82 77 75 76 75
56 63 58 73 71 55 58 73 90 69 61 97 85 81 81 77 71 80 75 76 72 69 66 64 63 61 62 71 75 77 78 82 80 78 77 74 76 89 97 85 81 79 78
61 63 59 59 68 55 69 100 92 82 80 79 94 78 75 70 73 75 76 71 71 67 64 61 60 62 71 77 78 83 84 86 76 77 84 87 85 84 90 94 91 81 82
71 56 50 60 68 56 79 100 100 99 85 72 98 80 73 74 76 76 78 75 71 66 61 61 62 73 78 78 82 85 85 87 82 78 79 80 87 93 91 93 84 85 82
77 65 65 72 71 81 99 100 100 100 96 70 97 87 74 76 76 79 77 84 78 76 72 72 73 80 81 83 87 86 88 85 81 83 89 87 87 87 87 83 80 82 82
75 71 81 79 74 89 98 94 98 100 99 83 90 88 89 74 83 85 79 87 83 74 72 78 77 82 86 87 86 90 85 83 82 85 91 93 94 90 86 79 81 95 87
88 81 77 77 76 95 99 92 96 88 84 84 93 86 99 92 76 89 90 87 91 91 86 84 85 88 88 86 88 87 80 77 90 93 96 96 94 89 82 84 85 87 94
88 91 92 76 76 99 98 94 83 78 100 96 100 99 95 90 81 70 87 99 95 92 94 92 89 84 86 84 86 89 82 86 92 96 100 96 91 84 90 91 92 93 92
93 93 94 79 93 99 96 92 99 100 98 94 100 96 100 100 85 85 88 88 92 87 98 93 90 92 87 90 87 87 85 94 94 95 91 92 91 94 85 85 86 86 87
98 97 86 97 96 98 99 100 98 98 100 100 97 100 88 94 91 100 99 100 92 89 100 99 93 89 92 92 76 80 92 97 82 87 92 95 97 82 78 83 86 87 85
95 96 96 97 97 100 100 100 100 99 100 100 99 100 99 99 97 95 97 96 100 100 100 100 100 100 90 77 78 79 89 88 86 77 96 94 86 79 82 84 87 91 89
94 93 95 97 97 99 100 100 100 100 100 100 100 100 100 94 94 98 97 96 91 95 100 100 99 94 91 90 89 92 87 89 96 97 92 84 80 72 79 82 79 79 84
93 93 93 95 97 98 99 100 100 100 100 100 100 100 98 98 100 100 100 100 99 98 99 100 99 98 99 100 97 94 98 98 97 87 82 79 76 74 78 75 74 81 88
89 88 87 87 90 95 97 99 100 100 99 100 100 100 100 100 100 100 100 100 100 100 99 99 100 99 100 100 100 95 98 95 84 79 78 76 72 74 74 69 73 76 84
89 88 89 90 91 92 95 96 94 94 96 98 100 100 100 100 100 100 100 100 100 100 100 100 100 100 99 99 99 97 90 81 76 70 66 67 66 65 64 68 73 75 78
87 81 78 78 80 80 81 80 85 91 93 94 93 95 96 97 97 99 99 98 99 100 100 100 100 98 92 82 80 75 71 67 64 61 61 62 66 67 68 73 78 82 85
87 89 87 84 82 82 79 78 78 77 80 83 87 91 92 90 91 91 91 91 91 90 90 91 93 92 82 81 77 71 66 64 66 68 68 67 66 71 77 78 83 90 88
90 92 92 91 90 86 83 83 85 82 82 80 81 82 83 88 89 89 89 89 86 85 85 85 87 89 87 90 92 84 70 71 70 71 71 74 72 76 79 74 78 84 86
89 89 91 95 92 86 86 92 91 88 84 81 80 79 79 80 82 84 85 83 84 84 85 85 87 86 83 78 83 78 72 67 69 70 72 73 75 76 73 71 77 82 89
84 85 89 92 90 87 84 92 91 86 84 82 82 81 81 82 83 82 84 85 85 85 89 90 92 91 92 89 87 85 84 79 74 72 72 73 74 75 73 74 78 88 96
77 78 81 84 82 82 84 92 95 84 82 81 83 83 82 82 83 81 82 86 87 87 86 86 85 84 86 87 88 90 88 88 83 80 77 77 78 79 79 79 79 87 100
75 73 75 81 83 78 78 81 80 79 82 89 92 92 87 85 83 85 86 85 83 84 86 88 87 86 86 85 84 85 88 91 95 90 88 86 87 89 90 89 84 82 91
70 69 71 73 75 78 78 79 79 76 79 79 81 83 86 91 95 96 94 93 96 98 96 92 90 90 90 88 89 87 85 89 96 100 100 100 100 98 97 95 90 85 84
73 72 72 72 74 75 76 79 80 80 82 84 87 89 88 90 90 92 91 93 95 96 98 100 100 100 100 99 100 100 99 98 98 100 100 100 100 100 100 98 94 93 88

GFSMW_925_rhum_126.txt.gz
RH
33 31 32 34 34 30 31 61 69 58 52 50 61 100 100 84 86 100 90 81 92 92 82 75 63 70 77 73 66 59 57 64 73 75 74 73 72 70 70 69 70 67 66
32 39 40 39 40 38 40 67 71 63 59 53 51 63 86 90 93 94 98 87 91 89 82 73 63 75 79 74 61 57 64 72 76 77 76 90 82 77 76 76 77 78 78
38 41 42 41 42 59 59 77 65 61 60 56 58 71 89 96 98 96 100 94 91 90 79 68 61 70 75 64 59 57 58 74 80 74 72 95 93 88 85 82 79 79 79
43 43 46 45 52 58 53 63 65 69 74 64 88 94 94 95 97 91 99 97 91 86 76 72 68 68 71 62 59 56 59 77 85 79 77 72 79 90 98 89 82 79 82
57 65 62 44 53 63 70 69 60 57 68 73 91 98 91 95 90 90 96 98 90 85 74 68 70 73 67 65 59 58 61 76 78 78 86 80 81 80 87 94 94 88 80
64 64 59 57 66 67 61 59 59 66 71 76 99 96 93 93 100 98 94 94 90 78 69 64 70 68 66 63 59 64 75 78 77 76 75 79 82 88 88 95 89 84 82
80 75 68 75 71 71 69 63 61 87 83 88 92 97 93 98 98 98 94 89 86 83 77 68 67 66 64 61 66 76 81 84 81 76 77 73 71 73 80 83 84 86 86
90 87 78 80 75 74 67 61 79 96 98 88 94 95 93 99 94 93 89 85 82 80 75 69 66 64 63 66 76 82 87 87 86 82 81 81 81 81 80 80 81 95 94
92 91 86 89 77 72 62 69 82 96 100 95 86 85 86 100 98 94 88 83 82 80 72 66 65 63 66 77 83 85 89 90 86 82 83 90 89 88 85 82 72 81 95
91 93 91 82 73 69 68 92 94 99 95 93 88 75 68 86 100 92 85 86 82 82 72 73 66 70 77 85 85 91 93 89 82 85 89 95 94 92 86 81 83 86 83
92 92 93 84 73 79 98 100 100 89 96 100 96 71 75 89 91 87 88 91 86 82 79 76 80 82 81 85 92 95 92 87 88 94 96 96 97 88 85 85 88 85 88
95 93 92 88 93 98 100 100 99 100 100 100 100 98 100 96 100 98 92 99 99 96 84 89 92 86 85 93 97 95 89 92 98 99 99 100 99 94 90 81 76 68 74
97 97 91 94 98 98 99 100 100 100 100 99 100 94 97 100 100 100 97 94 88 92 84 98 99 79 83 81 97 92 92 94 96 99 99 97 98 89 81 73 74 83 83
95 96 97 97 97 99 100 100 100 100 100 100 100 100 100 99 99 100 99 94 98 99 93 78 72 71 83 98 96 97 96 89 95 97 95 95 87 78 78 77 81 80 83
94 96 97 97 97 98 99 100 100 100 100 100 100 100 99 100 100 100 100 98 100 100 96 96 98 97 100 99 98 93 89 90 94 99 98 94 87 82 77 64 75 79 81
94 94 94 94 96 97 99 100 100 100 99 100 100 100 100 100 100 100 100 100 96 94 95 100 100 100 99 100 98 99 97 94 98 100 100 100 95 88 72 69 75 72 79
94 94 94 92 95 98 99 99 99 99 100 100 100 100 100 100 100 100 100 100 100 100 100 100 100 100 100 99 100 100 100 100 100 100 99 94 87 78 73 78 79 84 84
94 93 91 90 90 87 86 88 89 93 97 98 96 98 97 99 99 98 98 99 99 100 100 100 100 100 99 100 100 100 100 100 100 100 96 86 79 71 68 69 71 74 76
91 94 94 92 92 91 89 87 88 88 90 91 91 91 91 92 93 93 92 93 94 94 96 98 99 100 98 98 98 100 98 99 96 90 79 68 64 71 74 70 73 81 85
94 95 94 94 94 92 88 90 93 92 92 88 91 92 93 90 89 89 89 87 86 90 90 92 93 97 98 96 95 95 90 88 81 79 77 76 70 70 72 74 76 84 84
93 92 94 98 95 89 87 94 95 94 87 81 80 81 82 86 89 91 88 84 82 83 83 85 85 90 93 91 96 99 99 97 92 88 88 86 85 80 80 78 76 74 79
86 88 92 93 91 90 87 95 92 86 82 81 81 82 83 82 79 77 79 81 82 83 86 88 87 87 91 91 87 84 87 84 82 80 78 78 80 82 84 79 78 82 85
82 79 82 82 81 79 83 93 97 90 86 83 85 85 82 82 84 84 85 84 85 84 84 84 85 86 86 84 86 93 95 96 95 92 90 84 82 84 85 86 87 95 94
78 74 76 82 85 80 79 80 80 79 78 82 84 88 93 93 91 88 88 88 89 91 90 90 88 86 84 85 88 88 88 92 96 93 88 85 82 81 80 84 86 88 96
76 76 78 81 85 83 85 83 79 77 78 79 83 85 86 88 89 95 100 100 100 100 100 100 100 99 96 95 95 95 95 93 97 100 100 97 95 92 93 93 91 92 94
75 76 78 80 84 83 86 84 83 82 82 85 86 91 91 92 94 95 90 91 93 93 96 98 100 100 100 100 100 98 99 98 99 100 100 100 100 100 100 100 99 99 98

GFSMW_925_rhum_132.txt.gz
RH
34 32 31 29 27 27 27 24 25 26 27 34 66 96 100 99 98 98 100 100 100 100 100 98 88 78 59 46 57 66 78 76 70 70 78 79 73 65 69 72 70 66 67
45 43 40 35 31 31 29 26 25 28 30 39 76 87 83 77 80 90 88 100 100 100 100 100 97 84 74 56 62 74 82 77 72 75 81 92 86 83 78 76 75 74 72
71 67 65 52 38 36 36 31 25 29 33 43 66 84 71 80 90 100 99 97 94 99 97 96 100 91 81 64 62 77 76 80 75 76 74 97 94 91 89 84 83 83 84
73 73 72 62 46 42 36 34 30 29 35 44 73 82 81 91 90 96 98 98 94 100 92 98 100 94 92 75 67 71 76 75 79 84 70 72 76 93 99 97 92 87 84
72 79 74 67 55 43 42 35 36 35 37 50 73 82 83 85 71 76 95 100 100 100 100 100 100 99 93 86 67 72 72 74 75 80 84 84 83 81 90 99 99 90 86
75 79 75 77 63 48 48 48 46 45 45 62 81 80 84 87 90 95 98 97 100 100 100 100 100 99 98 90 82 75 68 75 73 75 79 78 83 87 82 94 98 94 92
76 84 89 90 72 61 54 56 61 66 62 77 79 86 83 88 89 91 95 89 97 99 98 100 100 100 92 90 83 82 72 76 73 69 76 78 74 67 68 76 93 93 95
75 80 82 92 86 76 69 70 78 83 80 88 82 88 79 89 87 88 90 93 91 92 96 100 100 99 91 88 93 86 77 80 76 74 69 76 77 72 64 68 81 95 99
76 81 80 89 86 82 78 78 84 89 87 88 85 82 61 72 94 92 82 97 93 84 93 100 100 100 94 88 81 86 87 82 79 70 68 72 77 77 74 71 67 71 97
81 80 87 90 83 79 76 75 80 86 78 68 65 65 64 72 83 80 88 88 94 91 87 98 100 100 98 91 96 91 90 86 83 75 79 75 78 80 80 79 76 70 71
91 90 92 87 84 83 80 80 82 82 82 80 76 71 75 69 80 82 82 90 96 92 93 91 97 100 100 99 98 94 94 91 90 80 78 78 83 86 86 85 82 78 75
94 93 89 92 89 92 86 84 85 84 81 65 64 65 71 94 98 71 72 77 96 93 99 100 100 100 99 89 100 100 100 93 89 78 83 87 89 92 90 92 85 84 81
88 90 94 92 92 92 93 90 85 85 84 83 81 88 97 100 100 89 80 80 100 100 100 100 100 100 100 100 99 100 99 90 83 83 84 87 93 95 96 91 92 91 88
89 90 92 95 97 100 93 84 85 86 82 85 92 94 96 99 96 85 87 95 99 100 99 98 89 97 99 100 100 100 95 88 78 61 70 85 89 91 82 93 96 92 91
91 94 95 95 95 98 99 99 100 100 100 100 98 99 99 99 99 100 100 100 100 100 98 97 95 97 99 100 97 74 69 78 91 87 80 93 86 84 74 79 95 94 94
93 93 93 92 94 96 98 99 100 100 100 100 100 100 100 99 100 100 100 100 100 100 100 99 98 100 100 98 96 85 84 98 98 99 100 99 97 76 78 92 97 81 95
94 94 94 94 95 97 97 98 98 100 100 100 100 100 100 100 100 100 100 100 99 99 99 100 100 100 99 99 99 100 100 100 100 100 99 100 93 92 98 100 99 100 99
95 93 92 91 92 91 93 96 98 98 99 100 100 100 99 99 100 100 100 100 100 99 99 100 100 100 100 100 99 100 100 100 100 100 100 100 100 100 100 100 100 100 100
94 96 98 98 97 95 93 92 94 97 98 100 100 97 95 94 93 95 95 94 94 98 99 100 100 100 99 97 95 96 93 96 95 95 97 99 100 100 97 99 100 100 100
95 98 100 100 99 100 98 96 100 100 100 100 94 87 85 86 92 91 91 91 91 93 89 88 91 95 98 99 97 98 100 100 100 100 100 95 96 100 100 100 100 100 100
89 86 88 97 99 100 99 98 99 100 96 86 83 83 83 85 84 82 81 81 81 81 83 85 87 89 92 93 92 92 96 100 98 98 99 100 98 88 85 88 87 93 95
86 86 93 94 86 81 81 93 98 92 93 95 95 92 89 86 84 82 83 83 82 84 86 83 84 84 83 82 86 92 97 96 93 94 97 100 100 100 100 100 100 99 96
85 86 86 90 87 84 83 88 87 76 78 81 87 91 97 100 100 99 99 100 100 99 100 99 99 98 93 90 90 89 91 96 100 100 99 98 94 98 100 100 100 100 99
81 85 84 89 95 89 85 89 85 77 77 82 81 80 82 86 91 99 98 99 99 99 99 98 99 99 98 99 99 97 93 90 91 98 100 100 99 100 100 100 100 100 100
80 83 86 87 89 84 81 77 71 68 68 70 72 69 69 88 99 99 100 100 100 100 100 99 98 99 100 100 100 100 99 99 98 96 98 99 99 99 99 99 100 100 100
78 80 83 83 86 86 86 83 76 72 70 71 69 66 63 61 63 59 54 69 97 98 98 96 97 99 97 95 99 99 98 99 100 93 100 100 99 100 100 100 100 100 100

GFSMW_925_rhum_135.txt.gz
RH
37 38 38 37 34 32 31 28 25 24 21 25 39 49 66 60 95 100 99 100 100 100 100 100 100 94 89 71 52 63 71 79 78 75 77 70 67 69 72 68 68 71 71
56 59 57 53 50 48 38 33 28 26 24 27 42 46 60 80 98 99 99 100 100 100 100 100 100 95 93 86 57 64 80 82 78 74 77 76 80 80 72 73 75 72 70
65 61 63 66 69 66 53 42 33 28 27 27 31 56 69 86 100 100 100 100 100 100 100 100 100 100 95 87 64 64 70 79 86 71 70 84 77 86 87 84 80 79 77
56 56 58 66 72 75 63 51 41 32 28 35 55 68 73 83 89 90 98 100 97 100 100 99 100 100 97 90 78 60 69 78 84 88 70 75 76 79 89 98 93 88 86
59 61 62 66 73 76 67 58 47 41 34 39 59 70 76 76 86 88 86 94 99 100 100 100 100 100 100 92 85 77 77 82 80 82 87 92 82 80 86 93 98 97 92
64 64 66 71 78 81 77 64 58 46 40 42 60 67 73 76 84 90 94 96 94 100 100 100 100 100 97 96 90 88 70 82 83 83 82 79 78 88 85 87 94 93 94
72 69 69 72 77 86 77 62 57 60 49 51 65 76 74 76 76 70 85 93 86 96 99 99 100 100 98 99 100 94 86 66 86 84 85 80 78 70 72 73 91 87 97
79 76 71 72 78 83 82 72 64 55 57 53 57 71 75 80 79 76 74 83 85 86 89 99 100 100 100 100 100 95 88 86 79 85 82 83 83 76 71 69 79 88 93
80 79 72 76 78 83 81 78 74 68 60 66 73 77 87 83 85 82 88 88 90 86 85 97 100 100 100 100 100 100 95 87 82 89 89 84 81 80 78 73 66 66 80
84 84 77 80 83 85 78 80 80 78 75 80 88 90 92 88 83 83 82 80 92 88 89 86 94 100 100 100 100 100 91 90 92 95 93 88 84 82 78 78 74 69 70
88 90 89 86 85 81 85 82 83 90 90 84 92 94 95 92 88 88 78 60 79 91 86 90 86 86 100 100 100 99 98 98 96 98 94 93 89 90 84 81 83 82 78
85 86 88 90 94 94 91 89 92 94 90 87 91 93 90 81 80 64 63 60 66 85 88 89 90 92 99 100 100 99 97 98 97 95 99 97 97 90 85 89 90 90 92
85 86 87 90 91 96 93 94 90 85 83 82 97 95 90 80 76 64 72 77 70 80 87 90 95 94 96 100 100 99 98 97 91 88 93 97 98 92 95 92 100 100 100
86 87 88 91 92 95 99 97 85 83 89 80 88 82 80 72 73 76 77 87 73 86 79 90 98 97 95 95 99 100 99 80 78 94 100 98 99 94 93 99 91 97 100
90 92 94 94 93 95 96 98 98 100 99 93 94 99 83 83 73 99 98 98 81 78 90 99 99 98 100 100 100 100 100 99 100 100 100 100 98 70 68 78 96 100 99
92 92 92 92 93 96 98 98 99 99 99 98 100 91 93 100 100 100 100 99 99 98 100 100 99 100 100 100 99 100 100 100 98 95 90 97 98 99 99 98 100 91 86
95 95 94 92 93 96 97 98 99 99 99 100 100 100 100 100 100 100 100 100 100 100 100 100 100 100 100 96 100 97 95 98 99 100 100 99 98 97 100 99 100 100 99
95 94 95 96 97 95 93 91 92 93 94 96 98 100 100 100 100 100 100 100 100 100 100 100 100 100 100 100 100 98 99 99 100 100 100 99 99 98 99 100 100 100 100
90 94 98 98 96 98 98 94 95 95 96 97 97 97 92 92 96 99 100 100 99 100 100 100 99 98 99 98 98 99 99 99 100 98 99 100 99 91 84 89 98 99 99
91 93 94 93 95 95 97 98 98 99 100 100 99 93 90 88 88 90 90 91 90 90 87 89 91 92 95 91 90 93 96 98 99 100 99 99 99 100 100 91 90 95 92
89 85 89 93 91 88 85 94 99 100 99 93 91 91 91 91 92 88 84 83 84 84 87 88 87 85 86 89 85 87 86 89 90 92 94 98 99 99 99 100 100 100 98
87 86 89 92 88 80 82 93 95 86 84 86 94 100 100 100 100 100 99 96 97 98 99 98 98 97 94 92 90 90 95 98 97 99 98 98 96 95 99 99 100 100 100
88 88 89 88 85 81 78 84 88 78 74 76 83 86 89 100 100 100 98 97 97 98 99 99 100 99 98 98 95 89 88 85 88 92 99 99 98 97 99 100 100 100 99
85 86 86 90 90 85 81 81 78 73 66 66 70 78 97 97 100 99 99 98 97 94 98 96 95 96 99 99 99 98 97 100 94 90 86 95 99 99 100 99 99 100 100
82 85 85 86 86 84 81 76 73 69 65 67 66 64 66 70 84 98 99 99 99 98 99 99 98 98 97 97 96 99 99 99 99 94 78 80 98 98 98 98 99 100 100
80 85 85 84 86 86 86 79 74 67 62 62 60 62 57 54 52 51 59 86 88 93 91 94 97 88 98 95 96 100 100 98 92 99 99 99 99 99 100 100 99 98 99

GFSMW_925_rhum_141.txt.gz
RH
25 28 30 34 41 44 44 43 43 39 38 38 34 33 37 38 42 50 59 89 95 94 93 95 91 85 81 79 72 65 53 51 50 53 56 58 59 63 65 68 66 66 69
28 27 30 34 38 44 50 49 48 47 43 40 36 32 32 34 37 44 54 69 94 97 93 96 96 88 86 80 73 64 54 51 51 53 56 62 59 63 65 67 67 66 65
32 32 33 35 38 42 45 52 55 53 50 46 41 36 33 33 35 37 47 63 77 90 99 97 99 95 87 84 77 68 58 53 52 54 55 60 61 57 63 66 65 64 64
38 39 40 41 42 44 46 49 54 60 60 54 47 42 41 39 38 39 42 58 70 86 96 96 99 99 96 89 83 76 65 57 56 59 58 51 49 55 61 63 66 65 68
46 48 51 54 56 54 53 54 56 59 67 61 55 47 43 41 39 37 41 48 65 75 96 100 100 100 100 98 89 84 74 64 60 61 66 61 63 69 64 68 73 70 72
54 57 61 64 66 65 59 59 61 65 68 66 61 54 47 43 42 40 40 42 52 65 83 99 100 100 100 100 96 89 80 72 65 62 64 65 65 68 68 68 67 77 76
65 69 70 73 80 73 62 59 63 69 69 66 64 59 52 47 41 40 41 44 48 63 77 90 100 99 100 100 100 99 92 82 74 66 68 68 67 67 65 68 60 64 71
78 74 72 78 82 57 59 59 62 67 71 69 67 62 56 54 47 41 42 45 46 51 62 78 90 97 99 100 100 100 99 94 87 81 76 77 73 72 69 70 72 72 73
78 73 73 75 81 73 58 60 62 64 65 60 58 60 58 57 55 49 47 47 47 47 48 61 71 78 96 99 100 100 99 100 99 94 86 83 89 87 86 77 74 70 79
77 79 78 80 82 88 78 63 61 64 66 58 53 56 57 57 58 56 52 50 49 49 48 48 60 68 92 100 99 100 100 100 99 100 99 96 91 86 87 84 82 80 77
88 88 86 86 90 91 93 89 65 65 68 68 62 58 55 54 55 56 56 55 54 52 51 51 52 62 76 94 100 100 100 100 100 100 99 96 92 90 90 89 86 85 81
89 87 87 89 90 93 96 93 95 88 72 69 68 66 64 64 58 57 61 62 60 60 58 56 55 60 68 80 94 97 100 100 100 100 100 98 95 92 90 85 86 94 88
88 88 87 88 91 93 94 96 98 99 90 89 78 71 70 70 69 70 71 72 72 66 59 59 57 63 71 71 82 96 100 100 100 99 100 100 99 96 91 86 88 89 92
86 88 89 87 88 88 92 96 99 100 96 89 91 85 76 74 72 72 71 71 70 68 61 58 57 60 59 62 67 78 89 93 93 96 97 96 96 96 88 92 93 93 97
83 85 86 84 84 83 85 96 99 100 100 97 96 94 86 80 77 75 72 70 64 61 59 60 57 60 62 65 69 72 79 96 97 88 96 99 99 89 96 99 100 100 99
66 69 71 72 77 79 80 89 97 98 99 100 100 99 100 94 96 90 89 82 76 69 67 68 62 65 70 72 76 79 85 93 94 100 100 100 100 100 98 88 86 97 99
59 62 61 62 68 72 75 78 87 94 97 99 100 100 100 99 89 90 92 96 94 99 100 100 94 98 98 97 94 92 98 100 100 100 100 100 100 100 100 99 99 99 99
55 54 53 54 56 58 65 74 80 86 87 88 93 100 100 100 98 98 100 100 97 98 100 99 100 100 100 100 100 100 100 100 100 99 98 100 100 100 100 99 100 98 99
54 55 55 54 57 58 58 66 74 88 98 98 94 94 100 100 100 96 100 100 98 97 98 100 99 100 100 100 100 99 99 99 99 100 100 100 100 100 96 92 93 95 96
58 60 57 57 59 62 60 60 68 75 89 96 96 95 94 97 98 92 99 100 98 99 100 100 100 98 98 94 92 91 93 95 96 93 94 93 93 94 94 99 99 99 99
62 66 59 63 66 67 59 63 66 72 76 80 83 85 88 90 90 91 93 94 96 98 99 99 100 99 100 98 83 88 91 92 96 100 100 91 87 86 89 94 100 100 99
63 67 64 63 66 69 61 61 65 62 64 74 77 80 77 79 76 77 78 79 82 85 88 92 96 98 98 99 99 98 86 91 92 93 94 83 83 90 98 99 100 99 100
61 65 65 62 64 69 67 62 66 62 54 56 66 70 71 75 76 71 70 70 72 76 80 84 85 84 83 87 93 98 98 98 97 98 91 92 96 100 100 96 90 97 99
61 64 66 62 62 67 68 67 67 63 58 56 57 55 64 62 67 66 64 66 65 66 68 70 69 67 73 82 82 83 87 89 90 92 88 93 99 98 98 97 100 100 100
59 65 66 64 63 69 69 69 69 65 60 60 60 59 58 61 68 79 79 73 92 82 70 69 75 71 77 89 78 61 75 78 95 91 96 97 93 96 97 98 99 99 99
58 64 68 67 66 70 70 71 70 67 60 54 57 54 52 58 63 70 75 58 73 65 59 70 77 85 80 74 65 60 78 86 91 94 93 89 93 90 93 97 94 94 97

GFSMW_925_rhum_144.txt.gz
RH
24 23 27 28 32 36 40 41 42 42 40 38 39 38 36 35 38 35 46 70 81 91 94 97 89 87 87 82 72 67 58 53 52 55 55 55 57 59 60 62 64 66 68
34 30 32 34 35 36 39 43 48 49 48 45 41 41 38 37 36 40 36 52 75 85 91 93 93 87 91 84 78 74 64 57 52 56 59 79 64 60 62 64 67 68 68
42 43 40 40 41 42 42 43 45 50 53 51 48 43 40 36 36 38 41 42 53 83 88 91 96 94 95 89 82 76 70 61 54 52 60 82 86 71 61 64 66 68 69
51 51 48 52 55 56 58 58 48 48 52 57 54 52 48 47 38 39 38 42 50 64 87 86 93 93 92 93 84 78 71 63 59 56 54 52 54 75 85 68 68 68 67
58 60 57 58 64 67 66 65 64 54 52 58 62 60 56 48 42 36 38 38 45 56 67 85 90 92 99 97 88 87 79 66 60 58 59 61 57 60 77 90 78 68 67
61 61 63 66 69 72 77 81 73 65 56 58 62 67 62 53 47 43 40 37 44 45 68 71 78 90 98 99 95 91 87 78 64 60 60 60 61 72 78 87 86 81 72
67 72 71 69 71 79 84 80 78 66 62 63 67 72 67 59 50 45 43 41 40 42 48 63 80 94 98 100 100 99 98 92 76 66 65 68 65 58 64 71 72 83 75
84 80 68 73 75 79 87 82 59 59 63 67 72 72 69 64 55 49 44 42 39 43 43 61 63 78 84 93 97 99 100 96 90 79 70 71 73 68 68 71 77 87 82
83 79 76 79 82 82 89 90 66 60 61 68 73 73 70 67 61 54 48 42 42 43 46 55 61 63 70 81 96 86 100 98 99 91 83 80 78 79 89 78 83 88 89
89 87 87 87 88 89 90 95 92 63 63 65 66 63 66 66 62 59 53 47 47 46 48 46 46 54 68 70 81 81 91 97 98 99 100 95 93 88 88 87 94 96 96
90 92 91 92 92 91 92 94 97 95 68 68 66 59 56 60 60 60 58 53 49 49 49 49 47 45 47 66 71 81 94 100 100 100 100 100 98 96 92 94 100 100 100
91 91 90 87 87 87 92 95 97 98 94 84 71 68 61 57 57 58 58 58 54 52 50 50 50 49 46 49 66 75 86 97 100 100 100 97 100 97 96 96 97 99 98
86 81 81 84 85 85 89 97 99 100 91 87 83 75 69 67 64 60 56 56 58 57 58 57 57 56 54 52 56 66 71 89 100 100 100 100 100 100 97 97 95 95 95
73 74 75 77 78 80 86 96 98 100 100 94 97 90 86 77 73 71 69 68 70 72 73 69 65 60 59 59 63 70 69 69 88 96 99 98 96 97 99 97 94 94 95
70 72 73 72 70 75 82 88 95 98 99 97 99 99 94 85 78 77 75 75 73 72 69 67 65 61 60 59 60 58 59 68 75 71 74 78 81 90 92 97 99 97 99
67 66 64 63 64 67 76 83 89 91 93 98 100 100 100 90 90 84 87 81 80 74 71 66 71 69 58 64 61 58 58 63 66 66 66 78 89 95 100 100 100 100 100
64 65 65 62 61 62 68 78 92 97 96 96 100 100 100 98 100 99 93 89 89 85 87 72 87 98 94 70 67 70 78 83 95 100 100 100 100 99 100 98 99 98 100
63 64 63 59 61 61 61 70 81 93 94 94 98 100 100 99 100 99 100 99 97 99 99 99 99 99 100 100 100 99 100 100 100 100 100 100 100 100 99 100 100 99 98
60 61 58 59 62 63 62 67 74 81 89 89 91 96 100 100 100 100 100 100 100 100 100 98 100 99 100 100 100 99 100 100 100 100 99 100 99 98 94 93 94 98 99
60 64 60 63 66 65 62 66 70 76 80 82 84 86 91 96 100 100 100 100 100 100 97 98 100 100 99 98 99 97 100 100 100 95 92 91 92 92 98 99 100 100 100
62 65 62 65 67 64 61 65 64 63 73 76 77 78 78 80 84 87 92 96 97 94 97 98 99 98 100 99 93 92 93 95 95 96 91 93 98 100 100 100 99 100 100
62 64 68 64 65 65 63 66 66 58 57 69 72 73 74 72 72 74 77 80 85 88 90 90 89 87 92 97 98 96 93 87 84 90 90 97 98 100 100 100 99 92 99
63 63 66 65 63 65 63 65 65 60 55 55 60 65 70 71 68 67 69 71 75 80 80 76 76 81 80 77 91 92 95 92 95 92 95 99 99 99 98 99 100 100 100
61 62 66 67 65 64 64 65 64 61 60 57 56 56 64 68 66 66 69 70 69 67 69 71 72 76 67 66 62 65 63 78 91 87 90 88 93 94 97 94 95 94 96
58 60 65 68 65 64 67 68 65 62 59 56 55 53 56 68 64 77 80 72 81 71 70 71 74 68 78 80 55 42 44 60 86 82 70 76 82 86 90 95 91 86 89
56 61 64 67 67 66 67 69 68 65 60 57 54 49 48 54 67 63 60 83 81 65 74 75 55 64 64 40 31 31 34 65 58 53 69 78 82 84 87 89 90 92 93